This is the latest recevied weather packets stored in our database for station/object EA6AMI-5. If no packets are shown the sender has not sent any weather packets the latest 1 day(s).
| Time | Temp. | Humidity | Pressure | Rain* | Wind** | Luminosity | Snow |
|---|---|---|---|---|---|---|---|
| 1778036043 | 12.78° C | 83% | 1010.9 hPa | 0 mm | 1.34 m/s, 130° | 0 W/m² | - |
| 1778035503 | 13.33° C | 84% | 1011 hPa | 0 mm | 1.34 m/s, 62° | 0 W/m² | - |
| 1778034963 | 12.78° C | 83% | 1011.1 hPa | 0 mm | 1.34 m/s, 69° | 0 W/m² | - |
| 1778034423 | 13.33° C | 83% | 1011.1 hPa | 0 mm | 1.34 m/s, 128° | 0 W/m² | - |
| 1778033883 | 13.33° C | 84% | 1010.9 hPa | 0 mm | 0.89 m/s, 50° | 0 W/m² | - |
| 1778033343 | 13.33° C | 82% | 1011.1 hPa | 0 mm | 0.89 m/s, 99° | 0 W/m² | - |
| 1778032803 | 13.33° C | 80% | 1011.1 hPa | 0 mm | 0.89 m/s, 134° | 0 W/m² | - |
| 1778032444 | 13.33° C | 79% | 1011.1 hPa | 0 mm | 1.34 m/s, 149° | 0 W/m² | - |
| 1778031903 | 14.44° C | 79% | 1011 hPa | 0 mm | 1.34 m/s, 161° | 0 W/m² | - |
| 1778031363 | 13.89° C | 81% | 1011 hPa | 0 mm | 0.89 m/s, 341° | 0 W/m² | - |
| 1778030824 | 13.89° C | 81% | 1011.1 hPa | 0 mm | 0.89 m/s, 80° | 0 W/m² | - |
| 1778030283 | 14.44° C | 79% | 1011.2 hPa | 0 mm | 0.89 m/s, 148° | 0 W/m² | - |
| 1778029743 | 14.44° C | 80% | 1011.2 hPa | 0 mm | 0.45 m/s, 98° | 0 W/m² | - |
| 1778029204 | 14.44° C | 80% | 1011.2 hPa | 0 mm | 0.89 m/s, 137° | 0 W/m² | - |
| 1778028843 | 14.44° C | 80% | 1011.1 hPa | 0 mm | 0.45 m/s, 117° | 0 W/m² | - |
| 1778028303 | 14.44° C | 80% | 1011.6 hPa | 0 mm | 0.45 m/s, 73° | 0 W/m² | - |
| 1778027764 | 15° C | 79% | 1011.4 hPa | 0 mm | 1.34 m/s, 132° | 0 W/m² | - |
| 1778027223 | 15.56° C | 77% | 1011.6 hPa | 0 mm | 0.45 m/s, 125° | 0 W/m² | - |
| 1778026683 | 15° C | 78% | 1011.7 hPa | 0 mm | 0.89 m/s, 152° | 0 W/m² | - |
| 1778026144 | 15° C | 78% | 1011.5 hPa | 0 mm | 0.45 m/s, 165° | 0 W/m² | - |
| 1778025604 | 15.56° C | 78% | 1011.7 hPa | 0 mm | 1.79 m/s, 140° | 0 W/m² | - |
| 1778025243 | 15.56° C | 76% | 1011.9 hPa | 0 mm | 1.34 m/s, 123° | 0 W/m² | - |
| 1778024704 | 16.11° C | 74% | 1011.8 hPa | 0 mm | 1.34 m/s, 47° | 0 W/m² | - |
| 1778024164 | 15.56° C | 77% | 1011.7 hPa | 0 mm | 0.89 m/s, 143° | 0 W/m² | - |
| 1778023623 | 15.56° C | 77% | 1011.8 hPa | 0 mm | 0.89 m/s, 118° | 0 W/m² | - |
* Rain latest hour (hover to see other rain measurements)
** Current wind speed in m/s (hover to see current wind gust speed)